Atwater, CA

8:49 AM PDT on May 24, 2017 (GMT -0700)
Castle

Weather History for KMER - March, 2013

Change the Weather History Date:

Monday, March 25, 2013

  Actual Average (KMCE) Record (KMCE)
Temperature  
Mean Temperature 60 °F -  
Max Temperature 78 °F 70 °F 77 °F (2013)
Min Temperature 41 °F 44 °F 35 °F (2002)
Degree Days  
Heating Degree Days 6    
Growing Degree Days 10 (Base 50)    
Moisture  
Dew Point 45 °F    
Average Humidity 80    
Maximum Humidity 100    
Minimum Humidity 23    
Precipitation  
Precipitation 0.00 in - - ()
Sea Level Pressure  
Sea Level Pressure 29.96 in    
Wind  
Wind Speed 2 mph (NNE)    
Max Wind Speed 10 mph    
Max Gust Speed -    
Visibility 10 miles    
Events      
Averages and records for this station are not official NWS values.
T = Trace of Precipitation, MM = Missing Value Source: NWS Daily Summary

Daily Weather History Graph

Daily Weather History Graph

Search for Another Location

Airport or City:

Trip Planner

Search our weather history database for the weather conditions in past years. The results will help you decide how hot, cold, wet, or windy it might be!

Date:

Astronomy

Mar. 25, 2013 Rise Set
Actual Time 6:57 AM PDT 7:18 PM PDT
Civil Twilight 6:31 AM PDT 7:45 PM PDT
Nautical Twilight 6:01 AM PDT 8:15 PM PDT
Astronomical Twilight 5:29 AM PDT 8:47 PM PDT
Moon 5:57 PM PDT (3/25) 5:42 AM PDT (3/25)
Length of Visible Light 13h 13m
Length of Day
12h 21m
Waxing Gibbous, 97% of the Moon is Illuminated
Mar 25
Waxing Gibbous
Mar 27
Full
Apr 2
Last Quarter
Apr 10
New
Apr 18
First Quarter

Hourly Weather History & Observations

Time (PDT) Temp. Windchill Dew Point Humidity Pressure Visibility Wind Dir Wind Speed Gust Speed Precip Events Conditions
12:15 AM 48.2 °F - 46.4 °F 93% 29.98 in 10.0 mi Calm Calm - N/A   Clear
12:35 AM 48.2 °F - 46.4 °F 93% 29.98 in 10.0 mi North 3.5 mph - N/A   Clear
12:55 AM 46.4 °F - 46.4 °F 100% 29.98 in 10.0 mi Calm Calm - N/A   Clear
1:15 AM 46.4 °F 45.2 °F 44.6 °F 93% 29.98 in 10.0 mi NE 3.5 mph - N/A   Clear
1:35 AM 44.6 °F 42.2 °F 44.6 °F 100% 29.98 in 10.0 mi ESE 4.6 mph - N/A   Clear
1:55 AM 42.8 °F - 42.8 °F 100% 29.98 in 10.0 mi Calm Calm - N/A   Clear
2:15 AM 44.6 °F 43.1 °F 44.6 °F 100% 29.98 in 10.0 mi ESE 3.5 mph - N/A   Clear
2:35 AM 44.6 °F 42.2 °F 44.6 °F 100% 29.97 in 10.0 mi ESE 4.6 mph - N/A   Clear
2:55 AM 44.6 °F 43.1 °F 44.6 °F 100% 29.97 in 10.0 mi East 3.5 mph - N/A   Clear
3:15 AM 44.6 °F - 44.6 °F 100% 29.97 in 10.0 mi Calm Calm - N/A   Clear
3:35 AM 44.6 °F - 44.6 °F 100% 29.97 in 10.0 mi Calm Calm - N/A   Clear
3:55 AM 42.8 °F - 42.8 °F 100% 29.96 in 10.0 mi Calm Calm - N/A   Clear
4:15 AM 44.6 °F - 44.6 °F 100% 29.96 in 10.0 mi Calm Calm - N/A   Clear
4:35 AM 46.4 °F - 46.4 °F 100% 29.96 in 10.0 mi Calm Calm - N/A   Clear
4:55 AM 44.6 °F - 44.6 °F 100% 29.96 in 10.0 mi Calm Calm - N/A   Clear
5:15 AM 42.8 °F - 42.8 °F 100% 29.96 in 10.0 mi Calm Calm - N/A   Clear
5:35 AM 42.8 °F - 42.8 °F 100% 29.96 in 10.0 mi Calm Calm - N/A   Clear
5:55 AM 42.8 °F - 42.8 °F 100% 29.96 in 10.0 mi Calm Calm - N/A   Clear
6:15 AM 42.8 °F - 42.8 °F 100% 29.97 in 10.0 mi Calm Calm - N/A   Clear
6:35 AM 41.0 °F - 41.0 °F 100% 29.97 in 10.0 mi Calm Calm - N/A   Clear
6:45 AM 41.0 °F - 41.0 °F 100% 29.97 in 10.0 mi Calm Calm - N/A   Clear
6:55 AM 41.0 °F - 41.0 °F 100% 29.97 in 10.0 mi Calm Calm - N/A   Clear
7:45 AM 42.8 °F - 42.8 °F 100% 29.98 in 10.0 mi Calm Calm - N/A   Clear
8:45 AM 50.0 °F - 50.0 °F 100% 29.98 in 10.0 mi Calm Calm - N/A   Mostly Cloudy
9:45 AM 57.2 °F - 48.2 °F 72% 30.00 in 7.0 mi NW 5.8 mph - N/A   Mostly Cloudy
10:45 AM 62.6 °F - 48.2 °F 59% 30.00 in 7.0 mi NW 4.6 mph - N/A   Mostly Cloudy
11:45 AM 68.0 °F - 46.4 °F 46% 29.99 in 7.0 mi Variable 3.5 mph - N/A   Partly Cloudy
12:45 PM 73.4 °F - 44.6 °F 36% 29.98 in 7.0 mi Calm Calm - N/A   Partly Cloudy
1:45 PM 75.2 °F - 42.8 °F 31% 29.96 in 7.0 mi Calm Calm - N/A   Partly Cloudy
2:45 PM 77.0 °F - 39.2 °F 26% 29.93 in 7.0 mi Calm Calm - N/A   Partly Cloudy
3:45 PM 78.8 °F - 37.4 °F 23% 29.91 in 7.0 mi West 5.8 mph - N/A   Clear
4:45 PM 75.2 °F - 37.4 °F 25% 29.90 in 7.0 mi Calm Calm - N/A   Clear
5:45 PM 75.2 °F - 39.2 °F 27% 29.89 in 10.0 mi Calm Calm - N/A   Clear
6:50 PM 68.0 °F - 44.6 °F 43% 29.89 in 10.0 mi Variable 4.6 mph - N/A   Clear
7:47 PM 60.8 °F - 48.2 °F 63% 29.89 in 10.0 mi Calm Calm - N/A   Clear
8:48 PM 55.4 °F - 50.0 °F 82% 29.91 in 10.0 mi North 6.9 mph - N/A   Clear
9:15 PM 57.2 °F - 46.4 °F 67% 29.92 in 10.0 mi North 10.4 mph - N/A   Clear
9:35 PM 57.2 °F - 46.4 °F 67% 29.92 in 10.0 mi North 10.4 mph - N/A   Clear
9:55 PM 57.2 °F - 46.4 °F 67% 29.94 in 10.0 mi North 9.2 mph - N/A   Clear
10:15 PM 57.2 °F - 48.2 °F 72% 29.94 in 10.0 mi North 10.4 mph - N/A   Clear
10:35 PM 55.4 °F - 46.4 °F 72% 29.95 in 10.0 mi North 8.1 mph - N/A   Clear
10:55 PM 55.4 °F - 46.4 °F 72% 29.95 in 10.0 mi North 4.6 mph - N/A   Clear
11:15 PM 53.6 °F - 48.2 °F 82% 29.96 in 10.0 mi North 9.2 mph - N/A   Clear
11:35 PM 51.8 °F - 48.2 °F 88% 29.96 in 10.0 mi North - - N/A   Clear
11:55 PM 51.8 °F - 48.2 °F 88% 29.95 in 10.0 mi North 5.8 mph - N/A   Clear